Wind_Speed
23 23 24 24 23 23 23 24 24 23 23 22 22 23 21 20 20 21 20 20 20 21 20 21 21 20 20 20 20 20 20 20 20 20 20 19 19 19 20 20 20 20 19 19
24 25 26 26 25 25 27 26 26 25 25 24 24 25 24 22 22 22 22 21 20 21 21 21 21 21 21 20 20 21 21 21 21 20 20 20 20 20 21 22 21 21 20 20
28 27 29 29 27 27 28 28 28 27 26 26 25 25 25 24 24 24 23 23 22 21 22 22 22 21 21 22 22 21 21 21 21 21 21 21 21 21 21 21 21 21 21 21
31 30 32 30 29 29 29 28 28 29 28 27 27 26 26 26 25 23 23 24 24 23 23 23 23 23 23 24 24 23 22 23 23 23 22 21 21 22 23 23 21 21 22 21
32 32 32 31 30 30 30 30 29 28 28 27 27 26 26 25 24 25 25 25 24 24 24 24 24 25 24 24 24 23 22 22 23 23 23 23 23 23 24 24 24 23 22 22
32 32 32 30 30 31 30 30 28 28 28 28 27 26 27 27 25 26 26 26 25 25 24 24 24 24 23 23 24 23 22 22 23 23 23 24 24 24 24 25 25 25 24 23
32 32 32 32 31 31 32 31 29 29 29 29 29 29 28 28 27 27 27 27 25 25 24 24 24 23 23 22 23 23 23 23 23 23 24 24 24 24 25 25 26 26 26 25
31 31 31 32 32 32 31 31 31 31 30 30 30 30 29 29 29 27 26 25 25 25 25 25 24 24 23 24 25 25 25 24 24 24 24 24 24 24 25 25 26 25 25 25
30 30 31 31 31 31 30 30 30 31 30 30 32 31 30 29 29 29 27 27 26 26 26 25 25 25 25 25 26 26 26 25 25 25 24 25 25 25 25 24 24 25 26 26
30 30 29 29 29 29 29 29 29 30 30 30 30 30 30 31 29 28 28 27 27 27 27 27 26 26 26 26 26 26 26 25 25 25 25 25 25 25 25 25 24 25 26 26
29 30 30 28 28 29 29 28 27 27 29 29 29 30 30 30 29 28 27 27 27 28 29 28 28 27 27 27 27 26 26 25 25 26 26 26 26 25 25 25 25 25 26 26
27 28 30 30 28 29 29 30 29 28 28 27 27 27 27 28 29 28 28 27 28 28 28 28 28 27 27 26 26 26 26 26 26 26 26 25 25 25 25 25 25 24 25 27
26 27 28 28 27 28 28 28 28 28 29 28 27 26 26 27 27 27 27 26 26 26 26 26 26 26 26 26 25 25 25 26 25 25 25 25 25 25 25 25 26 25 25 26
26 26 25 26 27 27 27 27 27 26 27 28 27 27 28 28 28 27 27 27 27 27 26 26 26 26 27 26 26 26 26 25 25 25 25 25 24 25 26 26 26 26 25 25
24 25 26 26 26 26 26 27 26 27 27 27 27 28 28 28 28 28 28 28 28 28 27 26 25 25 26 26 26 26 27 26 26 26 25 25 25 25 26 26 26 26 26 26
22 24 24 25 25 25 26 28 27 27 27 27 28 28 27 27 28 28 29 30 29 28 28 27 26 26 25 26 27 27 27 27 27 27 26 25 25 26 26 26 26 27 27 25
20 21 22 23 24 24 25 26 27 27 27 26 26 26 27 27 28 28 28 29 29 28 28 27 27 26 26 27 27 27 27 27 27 27 27 26 25 25 25 25 25 25 26 25
18 18 19 20 22 23 23 23 24 25 27 27 27 27 27 27 27 27 27 28 28 28 28 27 27 27 27 28 28 28 27 27 28 27 27 26 26 25 24 24 24 24 24 25
18 18 18 20 21 22 24 24 24 25 26 27 27 26 26 27 27 26 26 27 27 27 27 27 28 27 27 27 27 27 28 28 28 28 27 27 27 25 25 24 25 24 24 24
16 17 17 18 20 21 22 23 23 24 24 25 25 25 26 26 26 26 26 26 27 27 28 28 27 27 26 26 27 27 27 27 27 28 28 27 26 25 24 24 24 23 23 24
16 16 17 17 18 19 20 21 22 22 22 22 22 23 23 24 25 26 26 26 26 26 26 27 27 27 27 26 26 27 27 26 26 26 25 25 25 25 25 24 24 23 23 23
16 16 18 18 19 20 20 21 22 22 21 21 21 21 22 23 24 25 25 25 24 25 25 25 26 27 26 26 26 25 26 26 26 26 25 25 24 24 24 24 25 25 24 23
17 18 18 18 18 19 20 21 22 22 21 21 21 21 22 23 24 24 24 24 24 25 25 25 25 25 25 26 26 26 26 26 26 26 26 25 25 24 24 24 24 24 24 24
16 16 17 18 19 19 20 21 21 21 21 20 21 23 24 24 24 23 23 23 23 24 24 24 24 25 25 25 25 25 25 25 25 25 25 26 25 25 24 24 24 24 24 24
16 16 16 17 18 18 19 19 20 20 20 21 21 22 22 22 21 21 22 22 22 22 22 23 23 23 23 23 24 25 25 24 25 25 26 26 26 25 25 25 25 25 24 24
16 16 16 17 18 18 18 18 18 18 18 18 19 19 19 20 21 21 21 21 21 21 21 22 22 22 22 22 23 23 23 24 24 24 26 27 26 26 26 26 26 25 25 25
17 17 18 18 18 18 17 17 16 16 17 17 17 17 18 19 20 20 20 19 19 20 20 20 20 21 21 21 21 21 22 22 23 24 25 25 26 26 26 26 25 25 25 26
Wind_Direction
255 256 257 257 256 257 260 262 264 267 270 270 269 271 275 275 277 276 274 273 272 272 273 275 276 276 274 276 276 275 274 274 272 268 265 261 259 257 255 254 253 253 252 249
257 257 258 258 257 257 259 262 264 266 266 269 270 270 276 277 273 271 270 269 270 272 274 277 279 279 275 274 276 276 273 272 272 269 266 264 261 259 256 255 254 253 253 251
257 257 258 256 257 258 260 262 262 264 266 268 270 273 274 274 273 269 269 270 271 273 275 278 279 278 276 275 277 275 271 269 268 267 265 265 262 258 257 256 254 251 251 250
256 257 257 258 258 259 261 262 262 265 267 267 268 270 273 274 271 268 270 272 272 273 275 276 277 276 276 279 278 276 271 268 267 265 264 263 262 258 256 256 256 254 252 250
254 255 257 257 257 259 262 261 262 264 266 266 268 268 270 271 270 272 273 274 273 275 277 277 276 275 274 276 275 274 270 268 265 263 262 263 263 260 258 258 257 258 254 251
255 256 256 256 258 260 262 262 263 265 267 266 267 269 270 272 273 271 272 272 272 273 275 276 276 275 274 273 272 272 271 268 265 263 261 262 262 261 259 259 257 255 252 252
256 257 258 258 258 259 261 263 265 267 268 269 269 272 272 273 272 270 271 270 270 273 273 274 275 274 272 271 270 270 269 268 267 265 263 261 261 261 261 260 258 256 252 252
255 257 258 258 259 260 261 264 265 266 268 268 268 269 272 273 272 271 270 270 270 272 272 272 272 273 271 269 268 268 267 266 267 265 263 262 261 262 261 262 260 258 251 251
256 256 258 259 260 261 261 263 264 264 265 266 267 268 270 272 273 271 270 270 270 270 270 270 271 272 272 269 267 267 267 267 265 264 264 263 263 262 262 260 259 258 254 251
255 257 257 256 258 260 260 262 262 262 264 265 267 269 271 270 271 270 269 269 270 269 269 270 271 272 271 268 267 266 265 266 265 264 264 265 264 262 258 257 256 257 253 251
257 258 259 259 260 261 261 261 262 264 267 268 267 269 272 272 272 270 270 271 270 269 269 268 269 270 269 268 266 265 264 264 263 264 265 265 264 262 258 257 257 257 254 252
259 259 261 260 260 260 260 259 261 263 266 267 268 268 269 272 273 272 270 269 269 268 268 269 268 267 268 268 265 264 262 262 264 264 264 264 263 262 259 258 258 258 257 256
260 260 258 258 259 261 261 261 263 264 264 266 266 266 267 270 271 270 270 269 268 269 268 269 267 266 267 268 266 264 263 263 263 263 263 264 263 263 261 259 258 259 260 259
258 258 258 259 260 262 262 262 262 265 266 266 266 266 268 268 268 269 269 269 267 268 269 268 266 265 266 265 264 263 262 263 262 262 262 262 262 263 260 258 258 259 260 261
259 258 259 260 261 261 261 262 264 264 266 267 266 266 267 266 267 268 268 267 266 266 267 267 265 265 264 263 262 262 262 261 261 261 261 261 261 262 261 259 259 257 259 259
264 262 261 261 261 261 263 265 266 267 266 267 266 265 266 267 267 268 267 266 265 266 266 267 267 265 263 263 264 263 262 261 260 259 259 260 261 261 261 260 260 258 259 258
269 266 263 263 262 262 263 264 265 266 266 268 268 267 268 268 268 267 267 267 267 267 266 266 266 264 263 264 264 263 261 260 259 258 258 258 260 261 260 260 260 258 256 256
272 270 268 265 264 264 263 263 265 266 267 269 271 270 269 269 269 268 268 267 266 266 267 265 264 265 265 264 264 263 260 259 258 257 257 257 260 260 258 260 260 259 257 255
277 275 275 270 265 264 264 266 267 269 270 271 272 272 271 269 269 270 270 268 268 268 266 264 263 264 264 265 264 262 260 258 257 257 257 257 257 257 258 259 259 258 257 257
280 278 278 276 270 269 268 267 270 272 272 272 273 272 271 271 271 271 270 269 268 267 266 265 263 263 265 265 264 262 259 257 255 255 255 255 255 256 258 258 257 257 258 259
282 279 280 282 279 274 271 270 272 275 274 273 273 273 272 271 271 271 271 270 269 268 266 265 264 265 265 265 263 261 259 256 254 254 254 255 255 256 257 256 256 257 259 261
281 283 282 282 283 280 277 275 274 274 274 275 274 274 273 272 272 273 273 271 269 267 267 266 265 266 266 264 263 262 260 257 254 253 252 253 254 256 256 256 255 256 258 260
286 286 285 285 285 284 282 279 276 274 274 274 273 274 275 275 274 275 274 270 268 268 268 268 267 266 264 263 263 262 261 258 254 252 251 250 252 254 256 256 256 256 257 259
296 295 291 290 289 287 286 282 278 276 275 275 276 277 278 278 277 276 276 275 273 272 271 270 268 266 264 264 264 264 262 258 254 253 251 248 249 251 252 254 256 257 258 259
298 298 296 294 294 292 290 286 280 276 275 277 280 280 280 280 279 278 278 277 275 275 274 272 270 268 266 264 264 263 261 257 253 253 251 250 249 250 251 252 253 256 257 258
298 298 298 299 299 298 294 291 285 280 279 279 280 281 281 281 281 280 280 278 277 276 276 274 271 268 266 265 264 263 260 256 254 254 253 250 249 250 252 253 254 255 256 257
299 299 299 301 301 299 297 295 290 285 283 283 283 283 283 283 281 279 277 275 275 276 276 274 272 270 268 267 265 263 259 257 255 255 254 251 249 249 251 252 253 254 255 258
Height
5798 5799 5799 5800 5801 5802 5802 5802 5802 5803 5804 5804 5804 5803 5803 5802 5802 5801 5801 5801 5801 5801 5801 5801 5800 5800 5800 5799 5798 5798 5797 5797 5797 5797 5797 5798 5798 5799 5800 5801 5802 5803 5803 5804
5791 5792 5792 5793 5794 5795 5795 5795 5796 5797 5798 5797 5797 5796 5796 5796 5795 5795 5795 5795 5794 5794 5794 5795 5794 5793 5793 5792 5792 5791 5791 5791 5791 5791 5791 5791 5792 5793 5794 5795 5796 5797 5797 5798
5783 5784 5784 5785 5787 5787 5788 5788 5789 5789 5791 5790 5790 5790 5790 5789 5789 5788 5788 5788 5788 5787 5787 5788 5787 5787 5786 5785 5784 5784 5783 5783 5783 5784 5784 5785 5786 5787 5788 5789 5789 5790 5791 5792
5774 5776 5775 5780 5779 5779 5779 5780 5780 5781 5781 5782 5782 5782 5782 5782 5781 5781 5781 5781 5780 5779 5780 5780 5779 5779 5779 5778 5776 5776 5776 5776 5776 5777 5777 5778 5779 5780 5781 5782 5783 5784 5785 5786
5764 5765 5766 5769 5770 5771 5771 5771 5772 5773 5774 5774 5774 5774 5774 5774 5774 5774 5773 5773 5772 5772 5772 5772 5772 5771 5771 5770 5769 5769 5769 5769 5769 5769 5770 5771 5772 5773 5774 5775 5776 5777 5778 5779
5754 5755 5757 5761 5762 5762 5763 5763 5764 5765 5765 5765 5765 5766 5767 5767 5766 5766 5765 5764 5764 5764 5764 5764 5764 5763 5762 5762 5762 5762 5761 5761 5761 5762 5763 5764 5764 5765 5766 5768 5769 5770 5771 5772
5745 5746 5748 5751 5752 5753 5755 5756 5756 5756 5757 5757 5757 5758 5759 5759 5758 5757 5757 5756 5755 5756 5756 5756 5756 5755 5755 5755 5755 5754 5754 5754 5754 5755 5756 5756 5757 5758 5759 5760 5761 5762 5764 5765
5736 5737 5741 5741 5742 5744 5745 5746 5747 5748 5748 5748 5748 5749 5749 5750 5749 5748 5748 5747 5747 5748 5748 5748 5748 5748 5748 5748 5747 5747 5747 5747 5747 5748 5749 5749 5750 5751 5752 5752 5753 5754 5755 5758
5728 5730 5730 5731 5732 5734 5735 5737 5738 5738 5739 5739 5740 5740 5741 5741 5740 5740 5739 5739 5739 5740 5740 5740 5740 5740 5740 5740 5739 5739 5739 5739 5740 5741 5741 5742 5743 5743 5744 5745 5746 5747 5748 5750
5718 5719 5721 5722 5723 5725 5726 5727 5728 5729 5729 5730 5731 5731 5731 5732 5731 5730 5731 5730 5731 5731 5731 5732 5731 5731 5731 5731 5731 5731 5732 5732 5732 5733 5734 5734 5735 5736 5736 5737 5738 5739 5741 5742
5709 5711 5712 5713 5714 5716 5717 5718 5719 5721 5721 5721 5722 5722 5722 5723 5723 5722 5722 5722 5721 5722 5722 5723 5723 5722 5722 5723 5723 5723 5724 5724 5725 5726 5726 5727 5727 5728 5728 5730 5730 5732 5732 5734
5702 5703 5704 5705 5705 5706 5708 5709 5711 5712 5712 5713 5713 5713 5713 5714 5714 5713 5713 5713 5712 5712 5713 5713 5714 5714 5714 5714 5714 5715 5716 5717 5717 5718 5718 5718 5719 5720 5720 5722 5723 5723 5724 5725
5693 5694 5695 5696 5696 5698 5699 5700 5701 5703 5703 5704 5704 5704 5704 5705 5705 5705 5705 5704 5704 5704 5704 5704 5704 5705 5705 5705 5706 5706 5707 5708 5709 5710 5710 5710 5711 5712 5713 5714 5714 5715 5715 5716
5685 5686 5687 5688 5689 5690 5691 5692 5693 5694 5694 5694 5695 5695 5696 5695 5696 5696 5696 5696 5695 5695 5694 5695 5695 5696 5696 5697 5697 5698 5699 5700 5701 5701 5702 5702 5703 5704 5705 5706 5706 5707 5707 5708
5677 5678 5679 5680 5681 5682 5683 5683 5684 5685 5685 5685 5686 5686 5686 5686 5687 5687 5687 5686 5686 5686 5686 5686 5687 5687 5687 5688 5689 5690 5690 5691 5692 5693 5693 5694 5695 5695 5696 5697 5698 5699 5700 5700
5670 5670 5671 5672 5673 5674 5674 5675 5676 5676 5676 5676 5676 5676 5676 5676 5677 5677 5677 5677 5677 5677 5677 5678 5678 5678 5679 5679 5680 5680 5681 5682 5683 5684 5685 5686 5686 5687 5688 5689 5689 5690 5691 5691
5662 5663 5663 5664 5665 5665 5666 5666 5666 5667 5667 5667 5667 5667 5667 5667 5667 5667 5667 5667 5668 5668 5668 5669 5669 5669 5670 5670 5671 5671 5672 5673 5674 5675 5676 5677 5678 5678 5679 5680 5681 5681 5682 5683
5656 5655 5655 5656 5656 5657 5657 5657 5658 5658 5658 5658 5658 5658 5658 5658 5658 5658 5658 5658 5658 5659 5659 5659 5659 5660 5660 5660 5661 5662 5662 5663 5664 5666 5667 5668 5669 5670 5670 5671 5672 5673 5674 5674
5650 5649 5649 5649 5649 5649 5649 5650 5650 5650 5650 5649 5649 5649 5649 5649 5649 5649 5649 5649 5649 5649 5650 5650 5650 5650 5651 5651 5651 5652 5652 5654 5655 5656 5658 5659 5660 5661 5662 5663 5664 5664 5666 5666
5644 5644 5643 5642 5642 5641 5642 5642 5642 5642 5641 5641 5641 5641 5641 5640 5640 5640 5640 5640 5640 5640 5640 5640 5641 5641 5641 5642 5642 5642 5643 5644 5645 5647 5648 5650 5651 5653 5654 5655 5656 5657 5658 5658
5638 5638 5637 5636 5635 5635 5635 5635 5635 5634 5634 5633 5633 5632 5632 5632 5631 5631 5631 5631 5631 5630 5630 5631 5631 5632 5632 5632 5632 5633 5634 5634 5636 5638 5639 5641 5643 5644 5645 5647 5648 5649 5650 5651
5633 5632 5631 5630 5629 5628 5628 5627 5627 5626 5626 5625 5625 5624 5624 5623 5623 5623 5622 5622 5622 5621 5621 5621 5621 5622 5622 5623 5623 5624 5624 5625 5627 5629 5631 5632 5634 5636 5637 5638 5640 5641 5642 5643
5627 5626 5625 5624 5623 5622 5621 5620 5619 5619 5618 5618 5617 5617 5616 5615 5615 5614 5614 5613 5613 5612 5612 5612 5612 5612 5613 5613 5614 5615 5615 5616 5618 5620 5622 5624 5625 5627 5628 5630 5631 5632 5634 5635
5622 5621 5619 5618 5617 5616 5614 5613 5612 5611 5611 5611 5610 5609 5608 5608 5607 5606 5605 5605 5604 5603 5603 5602 5603 5603 5604 5604 5605 5606 5606 5607 5609 5611 5613 5615 5617 5619 5620 5622 5623 5625 5626 5627
5617 5615 5614 5613 5611 5609 5608 5606 5605 5605 5604 5603 5603 5602 5601 5600 5599 5598 5597 5597 5596 5595 5595 5594 5594 5594 5595 5596 5596 5597 5598 5598 5600 5602 5604 5606 5608 5610 5612 5613 5615 5617 5618 5619
5611 5610 5609 5607 5605 5603 5601 5600 5599 5598 5597 5597 5596 5595 5594 5592 5591 5590 5590 5589 5588 5588 5587 5587 5586 5586 5587 5587 5588 5589 5589 5590 5592 5593 5595 5597 5599 5601 5603 5605 5606 5608 5609 5610
5606 5605 5603 5602 5600 5597 5595 5594 5593 5592 5591 5590 5589 5588 5587 5586 5584 5583 5582 5582 5581 5581 5580 5580 5579 5579 5579 5579 5580 5580 5581 5582 5584 5585 5586 5588 5590 5592 5594 5596 5598 5599 5601 5602